Regional Weather Roundup
Issued by NWS

Home | Current Version | Previous Version | Graphics & Text | Print | Product List | Glossary On
Versions: 1 2 3 4 5 6 7 8 9 10 11 12 13 14 15 16 17 18 19 20 21 22 23 24 25 26 27 28 29 30 31 32 33 34 35 36 37 38 39 40 41 42 43 44 45 46 47 48 49 50
000
ASUS43 KMKX 281111
RWRWI

WISCONSIN REGIONAL WEATHER ROUNDUP
NATIONAL WEATHER SERVICE MILWAUKEE/SULLIVAN WI
500 AM CST FRI NOV 28 2014

NOTE: "FAIR" INDICATES FEW OR NO CLOUDS BELOW 12,000 FEET WITH NO
SIGNIFICANT WEATHER AND/OR OBSTRUCTIONS TO VISIBILITY.

WIZ001-002-006>008-014>016-023>028-281200-
NORTHWEST WISCONSIN

CITY           SKY/WX    TMP DP  RH WIND       PRES   REMARKS
SUPERIOR ARPT  LGT SNOW   8   3  79 E3        30.17F
ASHLAND        CLOUDY     8   0  69 S6        30.19F WCI  -2
HAYWARD        LGT SNOW   7   1  76 VRB5      30.12F WCI  -2
SIREN          CLOUDY    10   5  83 E5        30.10F WCI   1
CUMBERLAND     LGT SNOW   9   5  85 SE8       30.08F WCI  -4
RICE LAKE      LGT SNOW   9   5  83 SE8       30.12F WCI  -3
CHETEK         LGT SNOW   8   4  84 E7        30.12F WCI  -3
LADYSMITH      LGT SNOW   9   5  84 SE7       30.16F WCI  -3
EAU CLAIRE     LGT SNOW  10   5  80 E8        30.13F WCI  -2
MENOMONIE      CLOUDY    11   7  84 E10       30.12F WCI  -3
NEW RICHMOND   CLOUDY    11   6  80 SE9       30.06F WCI  -2
OSCEOLA        CLOUDY    11   7  83 SE12      30.09F WCI  -3
$$

WIZ003>005-009-010-017-018-281200-
NORTH CENTRAL WISCONSIN

CITY           SKY/WX    TMP DP  RH WIND       PRES   REMARKS
MANITOWISH WTR CLOUDY     3   0  87 S6        30.12F WCI  -8
ARBOR VITAE    CLOUDY     5   2  85 S5        30.12F WCI  -4
WOODRUFF       CLOUDY     5   2  85 S5        30.12F WCI  -4
RHINELANDER    CLOUDY     3  -1  83 E3        30.15F
EAGLE RIVER    MOCLDY     4  -1  80 CALM      30.12F
LAND O LAKES   CLOUDY     2  -2  85 CALM      30.13F
PHILLIPS       CLOUDY     6   0  78 S5        30.15S WCI  -3
TOMAHAWK       CLOUDY     4   1  84 CALM      30.16S
MEDFORD        LGT SNOW   6   3  84 SE5       30.14F WCI  -2
MERRILL        MOCLDY     6   2  86 S3        30.17S
$$

WIZ029-030-035-036-043>047-281200-
CENTRAL WISCONSIN

CITY           SKY/WX    TMP DP  RH WIND       PRES   REMARKS
WAUSAU         FLURRIES   7   2  80 S9        30.18F WCI  -7
MOSINEE        LGT SNOW   5   3  92 SE5       30.21F WCI  -4
MARSHFIELD     FLURRIES   9   4  80 SE6       30.17F WCI  -1
STEVENS POINT  FLURRIES   5   2  88 CALM      30.22F
WAUPACA        LGT SNOW   9   4  79 CALM      30.26F
WAUTOMA        MIX PCPN   9   5  83 CALM      30.26F
WISC RAPIDS    LGT SNOW   8   3  80 SE6       30.22F WCI  -2
CAMP DOUGLAS   LGT SNOW  10  10 100 SE6       30.20F FOG     WCI   1
$$

WIZ011>013-019>022-031-037>040-048>050-281200-
NORTHEAST WISCONSIN

CITY           SKY/WX    TMP DP  RH WIND       PRES   REMARKS
ANTIGO         MOCLDY     6   3  88 SE3       30.16F
SHAWANO        MOCLDY     9   5  84 CALM      30.25F
OCONTO         CLOUDY     8   6  93 CALM      30.28F
STURGEON BAY   CLOUDY    10   7  85 S3        30.25F
GREEN BAY      CLOUDY     9   5  84 S3        30.27F
MANITOWOC      CLOUDY    11   7  84 SW6       30.29F WCI   1
APPLETON       NOT AVBL
CLINTONVILLE   PTCLDY     7   3  85 S3        30.25F
OSHKOSH        CLOUDY    11   5  77 MISG      30.26F
$$

WIZ032>034-041-042-053>061-281200-
SOUTHWEST WISCONSIN

CITY           SKY/WX    TMP DP  RH WIND       PRES   REMARKS
LA CROSSE      CLOUDY    15   9  76 SE8       30.17F WCI   4
SPARTA         LGT SNOW  12   8  84 SE5       30.19F WCI   4
VIROQUA        CLOUDY    12   9  87 SE14      30.14F WCI  -4
BOSCOBEL       CLOUDY    16   8  71 E5        30.23F WCI   9
PRAIRIE DU CHI CLOUDY    16   9  72 SE9       30.20F WCI   5
PLATTEVILLE    CLOUDY    15   9  78 SE10      30.21F WCI   2
$$

WIZ056-057-062-063-064-067-068-281200-
SOUTH CENTRAL WISCONSIN

CITY           SKY/WX    TMP DP  RH WIND       PRES   REMARKS
REEDSBURG      LGT SNOW  12   8  85 E3        30.22F
BARABOO/DELLS  LGT SNOW  13   8  81 S8        30.23F WCI   2
LONE ROCK      LGT SNOW  18  10  71 E6        30.25F WCI  10
MINERAL POINT  FLURRIES  18  10  73 SE9       30.19F WCI   6
MADISON        CLOUDY    15  10  80 S8        30.26F WCI   4
MIDDLETON      CLOUDY    17  11  78 S8        30.24F WCI   6
WATERTOWN      CLOUDY    13  10  87 E5        30.26F WCI   5
MONROE         FLURRIES  16  10  79 SE6       30.24F WCI   7
JANESVILLE     FLURRIES  19  12  73 SE7       30.28F WCI  10
$$

WIZ051-052-058>065-066-070>072-281200-
SOUTHEAST WISCONSIN

CITY           SKY/WX    TMP DP  RH WIND       PRES   REMARKS
MILWAUKEE      MOCLDY    16   8  71 S5        30.30F WCI   9
WAUKESHA       CLOUDY    14   9  79 SE6       30.29F WCI   5
MILWAUKEE/TIMM CLOUDY    16   9  73 S3        30.30F
RACINE         CLOUDY    16   9  74 CALM      30.32F
BURLINGTON     CLOUDY    14  11  87 SE5       30.29F WCI   6
KENOSHA        CLOUDY    17  10  74 SE5       30.30F WCI  10
FOND DU LAC    CLOUDY    12   6  77 S7        30.27F WCI   1
SHEBOYGAN      CLOUDY    11   5  77 SW5       30.29F WCI   3
WEST BEND      CLOUDY    12   9  85 CALM      30.27F
JUNEAU         FLURRIES  12   8  83 SE7       30.27F WCI   1
$$

LSZ147-162-281200-
LAKE SUPERIOR

STATION/POSITION TIME  TEMP    WIND        PRES    WAVE
                       AIR SEA DIR/SP/G            HT/PER
                 (UTC) (F)     (DEG/KT/KT) (MB)    (FT/S)
DEVILS ISLAND    1100   12     200/ 11/ 14 1023.5F
PORT WING        1040    9     170/  6/  8 1022.4F
SAXON HARBOR     1000    8      CALM  /  5 1023.0
$$

LMZ867-665-643>646-281200-
LAKE MICHIGAN

STATION/POSITION TIME  TEMP    WIND        PRES    WAVE
                       AIR SEA DIR/SP/G            HT/PER
                 (UTC) (F)     (DEG/KT/KT) (MB)    (FT/S)
CHAMBERS ISLAND  1000   14     180/  2/  4 1025.7F
N MID LAKE BUOY  1050   19 42  260/ 10/ 12 1026.2F   1/ 3
NORTHPORT PIER   1015   14     170/  2/  5 1025.7F
SISTER BAY       1028             CALM       N/A
KEWAUNEE LAKESHO 1000    9     290/  3/  5 1025.6F
SHEBOYGAN LAKESH 1100   13 34  230/  6/  8 1027.4F
PORT WASHINGTON  1000   14      CALM  /  7 1028.1F
MILWAUKEE LAKESH 1000   17     220/  6/  8   N/A
S MID LAKE BUOY  1050   24 42  230/  8/ 10 1028.2F   2/ 6
KENOSHA   LAKESH 1100   18     200/  5/  7 1026.1F
$$

TC  - TEMPERATURE IN CELSIUS
VSB - VISIBILITY IN STATUTE MILES
WCI - WIND CHILL INDEX
HX  - HEAT INDEX




USA.gov is the U.S. government's official web portal to all federal, state and local government web resources and services.